Date String (YYYY-MM-DD hh:mm:ss) UTC,Instrument flags,Ambient pressure (hPa),Sample flow (lpm),Bypass flow (lpm),Sample temperature (°C),Ambient temperature (°C),ASC tube jacket temperature (°C),LED temperature (°C),Box temperature (°C),Sample RH (%),Span deviation,Mass concentration (μg/m³),Mass concentration (μg/m³),Mass concentration (μg/m³)
DateTimeUTC,F1_M11,P_M11,Q1_M11,Q2_M11,T1_M11,T2_M11,T3_M11,T4_M11,T5_M11,U1_M11,ZSPAN_M11,X0_M11,X2_M11,X1_M11
2023-01-15 03:00:00,,0815.6,5.00,0.00,25.3,23.7,00.0,34.1,27.1,11.5,0000.0,0008.56,0004.94,0004.67
2023-01-15 03:01:00,,0815.5,5.00,0.00,25.3,23.7,00.0,34.1,27.0,11.5,0000.0,0008.52,0004.87,0004.60
2023-01-15 03:02:00,,0815.7,5.00,0.00,25.2,23.6,00.0,34.1,26.9,11.5,0000.0,0008.31,0004.88,0004.60
2023-01-15 03:03:00,,0816.0,5.00,0.00,25.2,23.6,00.0,34.1,27.0,11.5,0000.0,0008.24,0004.82,0004.53
2023-01-15 03:04:00,,0815.9,5.01,0.00,25.2,23.7,00.0,34.1,27.0,11.9,0000.0,0008.45,0004.83,0004.52
2023-01-15 03:05:00,,0815.9,5.00,0.00,25.3,23.8,00.0,34.1,27.1,12.0,0000.0,0008.62,0004.82,0004.51
2023-01-15 03:06:00,,0816.1,5.00,0.00,25.3,23.9,00.0,34.1,27.1,11.9,0000.0,0008.50,0004.72,0004.42
2023-01-15 03:07:00,,0816.1,4.99,0.00,25.3,23.9,00.0,34.1,27.1,11.3,0000.0,0008.17,0004.48,0004.22
2023-01-15 03:08:00,,0815.9,5.00,0.00,25.3,23.9,00.0,34.1,27.1,11.0,0000.0,0007.18,0004.22,0003.98
2023-01-15 03:09:00,,0815.9,5.00,0.00,25.3,23.9,00.0,34.1,27.1,11.0,0000.0,0006.65,0003.99,0003.79
2023-01-15 03:10:00,,0816.1,5.00,0.00,25.3,24.0,00.0,34.1,27.2,11.0,0000.0,0006.13,0003.77,0003.59
2023-01-15 03:11:00,,0816.0,5.00,0.00,25.3,24.0,00.0,34.1,27.2,11.3,0000.0,0005.84,0003.64,0003.46
2023-01-15 03:12:00,,0816.0,5.01,0.00,25.3,24.0,00.0,34.1,27.2,11.3,0000.0,0005.83,0003.55,0003.40
2023-01-15 03:13:00,,0815.9,4.99,0.00,25.3,24.0,00.0,34.1,27.2,11.3,0000.0,0005.81,0003.44,0003.31
2023-01-15 03:14:00,,0815.8,5.00,0.00,25.3,24.0,00.0,34.1,27.2,11.2,0000.0,0005.63,0003.39,0003.28
2023-01-15 03:15:00,,0815.6,5.00,0.00,25.4,24.0,00.0,34.1,27.2,11.2,0000.0,0005.01,0003.25,0003.16
2023-01-15 03:16:00,,0815.9,5.00,0.00,25.4,24.0,00.0,34.2,27.2,11.1,0000.0,0004.31,0003.06,0002.91
2023-01-15 03:17:00,,0816.0,5.00,0.00,25.4,24.0,00.0,34.2,27.2,11.2,0000.0,0004.03,0002.84,0002.68
2023-01-15 03:18:00,,0815.8,5.00,0.00,25.4,24.0,00.0,34.2,27.2,11.2,0000.0,0003.90,0002.75,0002.58
2023-01-15 03:19:00,,0815.7,5.00,0.00,25.4,24.0,00.0,34.2,27.2,11.2,0000.0,0004.08,0002.90,0002.70
2023-01-15 03:20:00,,0815.6,5.00,0.00,25.4,23.9,00.0,34.2,27.2,11.0,0000.0,0004.28,0002.99,0002.77
2023-01-15 03:21:00,,0815.5,5.00,0.00,25.3,23.9,00.0,34.2,27.1,11.1,0000.0,0004.32,0003.03,0002.79
2023-01-15 03:22:00,,0815.5,5.00,0.00,25.3,23.8,00.0,34.2,27.1,11.1,0000.0,0004.23,0003.00,0002.77
2023-01-15 03:23:00,,0815.4,4.99,0.00,25.3,23.7,00.0,34.2,27.1,11.1,0000.0,0003.88,0002.93,0002.71
2023-01-15 03:24:00,,0815.4,5.02,0.00,25.3,23.7,00.0,34.2,27.0,11.1,0000.0,0003.53,0002.86,0002.63
2023-01-15 03:25:00,,0815.4,5.03,0.00,25.3,23.6,00.0,34.2,27.0,11.3,0000.0,0003.62,0002.87,0002.60
2023-01-15 03:26:00,,0815.4,5.02,0.00,25.2,23.5,00.0,34.2,26.9,11.2,0000.0,0003.68,0002.88,0002.58
2023-01-15 03:27:00,,0815.4,5.03,0.00,25.2,23.3,00.0,34.2,26.8,11.3,0000.0,0003.69,0002.85,0002.54
2023-01-15 03:28:00,,0815.4,5.00,0.00,25.1,23.2,00.0,34.1,26.7,11.3,0000.0,0003.72,0002.80,0002.49
2023-01-15 03:29:00,,0815.4,5.00,0.00,25.1,23.1,00.0,34.1,26.7,11.4,0000.0,0003.58,0002.69,0002.39
2023-01-15 03:30:00,,0815.4,5.01,0.00,25.1,23.1,00.0,34.1,26.7,11.4,0000.0,0003.30,0002.52,0002.24
2023-01-15 03:31:00,,0815.4,4.99,0.00,25.0,23.0,00.0,34.1,26.6,11.5,0000.0,0003.09,0002.38,0002.10
2023-01-15 03:32:00,,0815.3,5.00,0.00,25.0,23.0,00.0,34.1,26.6,11.5,0000.0,0003.17,0002.21,0001.95
2023-01-15 03:33:00,,0815.4,5.00,0.00,24.9,23.0,00.0,34.0,26.5,11.3,0000.0,0003.02,0002.05,0001.80
2023-01-15 03:34:00,,0815.4,5.01,0.00,24.9,22.9,00.0,34.0,26.5,11.3,0000.0,0002.96,0001.88,0001.64
2023-01-15 03:35:00,,0815.3,4.99,0.00,24.9,22.8,00.0,34.0,26.5,11.3,0000.0,0002.82,0001.70,0001.48
2023-01-15 03:36:00,,0815.4,4.99,0.00,24.8,22.8,00.0,34.0,26.4,11.4,0000.0,0002.45,0001.44,0001.28
2023-01-15 03:37:00,,0815.4,5.00,0.00,24.8,22.8,00.0,33.9,26.4,11.4,0000.0,0002.19,0001.24,0001.10
2023-01-15 03:38:00,,0815.3,5.00,0.00,24.7,22.7,00.0,33.9,26.3,11.4,0000.0,0001.91,0001.06,0000.96
2023-01-15 03:39:00,,0815.3,5.01,0.00,24.7,22.9,00.0,33.9,26.3,11.5,0000.0,0001.69,0000.91,0000.82
2023-01-15 03:40:00,,0815.3,5.01,0.00,24.7,23.0,00.0,33.8,26.3,11.5,0000.0,0001.52,0000.76,0000.68
2023-01-15 03:41:00,,0815.3,5.01,0.00,24.7,23.1,00.0,33.8,26.4,11.5,0000.0,0001.49,0000.67,0000.59
2023-01-15 03:42:00,,0815.3,5.00,0.00,24.7,23.3,00.0,33.8,26.4,11.5,0000.0,0002.61,0000.62,0000.54
2023-01-15 03:43:00,,0815.3,5.01,0.00,24.7,23.4,00.0,33.8,26.5,11.4,0000.0,0002.42,0000.61,0000.52
2023-01-15 03:44:00,,0815.2,4.99,0.00,24.8,23.4,00.0,33.8,26.5,11.3,0000.0,0002.47,0000.61,0000.51
2023-01-15 03:45:00,,0815.2,5.00,0.00,24.8,23.5,00.0,33.8,26.6,11.3,0000.0,0002.41,0000.60,0000.50
2023-01-15 03:46:00,,0815.3,4.99,0.00,24.8,23.5,00.0,33.8,26.6,11.3,0000.0,0002.33,0000.60,0000.49
2023-01-15 03:47:00,,0815.6,4.99,0.00,24.8,23.6,00.0,33.7,26.6,11.2,0000.0,0002.33,0000.60,0000.49
2023-01-15 03:48:00,,0815.4,5.01,0.00,24.8,23.6,00.0,33.7,26.6,11.3,0000.0,0002.36,0000.62,0000.49
2023-01-15 03:49:00,,0815.3,4.99,0.00,24.8,23.6,00.0,33.7,26.6,11.2,0000.0,0002.38,0000.63,0000.49
2023-01-15 03:50:00,,0815.3,5.00,0.00,24.8,23.6,00.0,33.7,26.6,11.2,0000.0,0002.37,0000.61,0000.47
2023-01-15 03:51:00,,0815.1,5.00,0.00,24.9,23.6,00.0,33.7,26.6,11.2,0000.0,0002.37,0000.61,0000.46
2023-01-15 03:52:00,,0815.1,5.00,0.00,24.8,23.5,00.0,33.7,26.6,11.2,0000.0,0002.48,0000.64,0000.47
2023-01-15 03:53:00,,0815.2,5.00,0.00,24.8,23.5,00.0,33.8,26.6,11.2,0000.0,0001.78,0000.63,0000.47
2023-01-15 03:54:00,,0815.2,5.01,0.00,24.9,23.5,00.0,33.7,26.6,11.1,0000.0,0001.17,0000.62,0000.47
2023-01-15 03:55:00,,0815.1,5.00,0.00,24.8,23.5,00.0,33.7,26.6,11.2,0000.0,0001.07,0000.62,0000.47
2023-01-15 03:56:00,,0815.1,4.99,0.00,24.8,23.5,00.0,33.7,26.5,11.3,0000.0,0001.06,0000.64,0000.47
2023-01-15 03:57:00,,0815.1,5.02,0.00,24.8,23.3,00.0,33.7,26.5,11.3,0000.0,0000.98,0000.63,0000.48
2023-01-15 03:58:00,,0815.1,5.00,0.00,24.7,23.2,00.0,33.7,26.4,11.4,0000.0,0001.06,0000.66,0000.50
2023-01-15 03:59:00,,0815.0,5.01,0.00,24.7,23.2,00.0,33.7,26.4,11.4,0000.0,0001.10,0000.67,0000.50
